Flag for Canada Weather past 2 weeks in Kelowna, British Columbia, Canada

Now
66 °F

Clear.


Feels Like: 66 °F
Forecast: 49 / 66 °F
Wind: 6 mph from Southwest

Location: Kelowna Airport

Current Time: Sep 1, 2014 at 10:46:46 PM

Latest Report: Sep 1, 2014 at 10:00 PM


Visibility: 9 mi

Pressure: 29.90 "Hg

Humidity: 43%

Dew point: 43 °F

Location of KelownaLocation

Historic Weather in Kelowna — Graph

°F

Kelowna temperature yesterday

Maximum temperature yesterday: 68 °F (at 1:00 PM)
Minimum temperature yesterday: 46 °F (at 5:00 AM)
Average temperature yesterday: 59 °F

Past Weeks' High & Low Weather Summary

 TemperatureHumidityPressure
High91 °F (Aug 18, 4:00 PM)100% (Aug 29, 6:00 AM)30.20 "Hg (Aug 29, 6:00 AM)
Low46 °F (Aug 25, 5:00 AM)21% (Aug 27, 4:00 PM)29.64 "Hg (Aug 19, 3:53 PM)
Average66 °F62%29.93 "Hg
* Reported Aug 17 9:00 PM — Sep 1 9:00 PM, Kelowna, Weather by CustomWeather, © 2014

Note: Actual official high and low records may vary slightly from our data, if they occured in-between our weather recording intervals... More about our weather records

Advertising

Kelowna weather history for previous 24 hours

 ConditionsComfort  
Time TempWeatherWind HumidityBarometerVisibility
9:00 PM
Sep 1
66 °FClear.12 mph43%29.90 "Hg9 mi
8:00 PM66 °FSunny.9 mph43%29.90 "Hg9 mi
7:00 PM72 °FSunny.18 mph33%29.89 "Hg9 mi
6:00 PM73 °FPassing clouds.16 mph31%29.87 "Hg9 mi
5:00 PM77 °FPassing clouds.17 mph28%29.86 "Hg9 mi
4:00 PM77 °FPassing clouds.15 mph28%29.86 "Hg9 mi
3:00 PM75 °FSunny.14 mph31%29.88 "Hg9 mi
2:00 PM73 °FScattered clouds.12 mph31%29.91 "Hg9 mi
1:00 PM72 °FPassing clouds.10 mph33%29.94 "Hg9 mi
12:00 PM70 °FSunny.9 mph38%29.96 "Hg9 mi
11:00 AM68 °FSunny.7 mph40%29.98 "Hg9 mi
10:00 AM64 °FSunny.7 mph49%29.99 "Hg9 mi
9:00 AM55 °FPassing clouds.6 mph67%30.01 "Hg9 mi
8:00 AM54 °FOvercast.2 mph77%30.01 "Hg9 mi
7:00 AM48 °FPassing clouds.No wind82%30.02 "Hg9 mi
6:00 AM48 °FClear.3 mph82%30.01 "Hg9 mi
5:00 AM52 °FPassing clouds.3 mph77%30.00 "Hg9 mi
4:00 AM54 °FOvercast.5 mph72%30.01 "Hg9 mi
3:00 AM55 °FOvercast.5 mph67%30.00 "Hg9 mi
2:00 AM57 °FMostly cloudy.10 mph59%29.98 "Hg9 mi
1:00 AM59 °FMostly cloudy.7 mph55%29.98 "Hg9 mi
12:00 AM61 °FOvercast.9 mph52%29.97 "Hg9 mi
11:00 PM
Aug 31
61 °FMostly cloudy.6 mph52%29.97 "Hg9 mi
10:00 PM57 °FPassing clouds.5 mph67%29.97 "Hg9 mi
Weather by CustomWeather, © 2014

See weather overviewHow to use our weather pages